Track IRIDIUM 129 now! 10-day predictions IRIDIUM 129 is classified as:
1 42958U 17061D 26019.69100317 .00000051 00000-0 11134-4 0 9998 2 42958 86.3946 87.3568 0002087 106.4564 253.6861 14.34217916433511